FW6620 Weather Reports


time (UTC)temp
C
wind
direction
speed
KPH
gust
KPH
rain 1hr
cm
rain 24hr
cm
rain mn
cm
humidity
%
barometer
mb
20220525142544 17 0 1.6 8.0 0.00 2.64 0.66 84 1012.4
20220525142044 17 67 1.6 8.0 0.00 2.64 0.66 85 1012.3
20220525141549 17 307 3.2 8.0 0.00 2.64 0.66 85 1012.3
20220525141044 17 295 1.6 6.4 0.00 2.64 0.66 86 1012.2
20220525140547 17 324 1.6 8.0 0.00 2.64 0.66 88 1012.0
20220525140106 17 0 1.6 8.0 0.00 2.64 0.66 87 1012.2
20220525135548 16 302 0.0 6.4 0.00 2.64 0.66 88 1012.1
20220525135046 16 333 0.0 14.5 0.00 2.64 0.66 89 1012.0
20220525134554 16 333 3.2 14.5 0.00 2.64 0.66 88 1012.0
20220525134044 16 0 0.0 6.4 0.00 2.64 0.66 90 1012.0
20220525133545 16 0 1.6 6.4 0.00 2.64 0.66 89 1011.9
20220525133051 16 0 3.2 11.3 0.00 2.64 0.66 89 1011.9
20220525132544 16 299 3.2 11.3 0.00 2.64 0.66 89 1011.8
20220525132053 16 332 1.6 11.3 0.00 2.64 0.66 91 1011.8
20220525131607 16 307 1.6 14.5 0.00 2.64 0.66 92 1011.5
20220525131056 16 0 3.2 14.5 0.00 2.64 0.66 92 1011.5
20220525130545 16 91 1.6 11.3 0.00 2.64 0.66 94 1011.3
20220525130104 15 297 1.6 11.3 0.00 2.64 0.66 94 1011.4
20220525125544 15 10 1.6 6.4 0.00 2.64 0.66 94 1011.2
20220525125049 15 10 1.6 9.7 0.00 2.64 0.66 94 1011.1
20220525124616 15 0 1.6 9.7 0.00 2.64 0.66 94 1011.1
20220525124046 15 0 1.6 8.0 0.00 2.64 0.66 95 1010.9
20220525123544 16 307 1.6 6.4 0.00 2.64 0.66 95 1010.9
20220525123056 16 320 0.0 4.8 0.00 2.64 0.66 95 1010.8
20220525122544 16 0 0.0 4.8 0.00 2.64 0.66 95 1010.6
20220525122044 16 320 0.0 6.4 0.00 2.64 0.66 95 1010.4
20220525121602 16 0 1.6 6.4 0.00 2.64 0.66 95 1010.2
20220525121050 16 35 1.6 4.8 0.00 2.64 0.66 95 1010.4
20220525120544 16 328 0.0 6.4 0.00 2.64 0.66 95 1010.1
20220525120100 16 339 0.0 6.4 0.00 2.64 0.66 96 1010.1
20220525115550 16 339 1.6 6.4 0.00 2.64 0.66 96 1010.0
20220525115048 16 320 1.6 6.4 0.00 2.64 0.66 96 1010.0
20220525114608 16 330 1.6 6.4 0.00 2.64 0.66 96 1010.1
20220525114044 16 331 0.0 6.4 0.00 2.64 0.66 96 1010.1
20220525113546 16 0 1.6 6.4 0.00 2.64 0.66 96 1010.0
20220525113100 16 0 0.0 3.2 0.00 2.64 0.66 96 1009.9
20220525112544 16 0 0.0 0.0 0.00 2.64 0.66 96 1009.9
20220525112046 16 0 0.0 1.6 0.00 2.64 0.66 96 1010.0
20220525111616 16 0 0.0 1.6 0.00 2.64 0.66 96 1009.8
20220525111045 16 0 0.0 3.2 0.00 2.64 0.66 96 1009.7
20220525110544 16 0 0.0 3.2 0.00 2.64 0.66 96 1009.7
20220525110109 16 329 0.0 3.2 0.00 2.64 0.66 96 1009.7
20220525105544 16 0 0.0 3.2 0.00 2.64 0.66 96 1009.6
20220525105056 16 0 0.0 0.0 0.00 2.64 0.66 96 1009.7
20220525104604 16 0 0.0 0.0 0.00 2.64 0.66 96 1009.7
20220525104048 16 0 0.0 1.6 0.00 2.64 0.66 96 1009.8
20220525103551 16 0 0.0 1.6 0.00 2.64 0.66 96 1009.9
20220525103105 16 0 0.0 1.6 0.00 2.64 0.66 96 1009.9
20220525102545 16 0 0.0 1.6 0.00 2.64 0.66 96 1010.2
20220525102046 16 0 0.0 3.2 0.00 2.64 0.66 96 1010.1
20220525101556 16 0 0.0 3.2 0.00 2.64 0.66 96 1010.1
20220525101048 16 0 0.0 1.6 0.00 2.64 0.66 96 1010.2
20220525100545 16 329 0.0 1.6 0.00 2.64 0.66 96 1010.1
20220525100057 16 0 0.0 1.6 0.03 2.64 0.66 96 1009.9
20220525095544 16 0 0.0 1.6 0.03 2.64 0.66 96 1009.8
20220525095044 16 0 0.0 0.0 0.03 2.64 0.66 96 1009.5
20220525094556 16 0 0.0 1.6 0.03 2.64 0.66 96 1009.3
20220525094045 16 0 0.0 1.6 0.03 2.64 0.66 96 1009.5
20220525093545 16 0 0.0 1.6 0.03 2.64 0.66 96 1009.2
20220525093058 16 0 0.0 3.2 0.03 2.64 0.66 96 1009.2
20220525092546 16 0 0.0 6.4 0.03 2.64 0.66 96 1009.3
20220525092046 16 329 1.6 6.4 0.03 2.64 0.66 96 1009.0
20220525091556 16 320 1.6 8.0 0.03 2.64 0.66 96 1008.6
20220525091049 16 331 1.6 14.5 0.03 2.64 0.66 96 1008.9
20220525090545 16 306 4.8 14.5 0.03 2.64 0.66 96 1008.5
20220525090123 16 0 0.0 11.3 0.00 2.62 0.64 96 1006.6
20220525085545 16 0 3.2 11.3 0.00 2.62 0.64 96 1006.4
20220525085046 16 116 0.0 6.4 0.00 2.62 0.64 96 1006.0
20220525084556 16 114 0.0 9.7 0.00 2.62 0.64 96 1005.9
20220525084047 16 0 1.6 9.7 0.00 2.62 0.64 95 1005.8
20220525083544 16 128 0.0 4.8 0.00 2.62 0.64 96 1005.8
20220525083058 16 235 0.0 8.0 0.00 2.62 0.64 96 1005.9
20220525082545 16 116 1.6 8.0 0.00 2.62 0.64 96 1005.7
20220525082044 16 0 0.0 4.8 0.00 2.62 0.64 96 1007.0
20220525081604 16 128 0.0 6.4 0.03 2.62 0.64 96 1006.7
20220525081044 16 118 1.6 6.4 0.05 2.62 0.64 96 1008.6
20220525080547 16 0 0.0 3.2 0.08 2.62 0.64 96 1009.2
20220525080052 16 131 0.0 3.2 0.13 2.62 0.64 96 1009.0
20220525075547 16 0 0.0 3.2 0.18 2.62 0.64 95 1008.9
20220525075045 16 0 0.0 4.8 0.23 2.62 0.64 96 1009.3
20220525074600 16 131 0.0 4.8 0.25 2.62 0.64 95 1009.3
20220525074044 16 0 0.0 4.8 0.30 2.62 0.64 96 1009.0
20220525073544 16 0 0.0 4.8 0.33 2.62 0.64 96 1009.1
20220525073055 16 122 0.0 6.4 0.33 2.62 0.64 96 1009.1
20220525072551 16 0 1.6 6.4 0.36 2.62 0.64 96 1009.2
20220525072046 16 0 0.0 3.2 0.38 2.62 0.64 96 1009.4
20220525071600 16 0 0.0 1.6 0.36 2.59 0.61 96 1009.8
20220525071044 16 0 0.0 3.2 0.33 2.57 0.58 96 1010.5
20220525070544 16 0 0.0 3.2 0.33 2.54 0.56 96 1011.4
20220525070054 16 53 0.0 3.2 0.30 2.49 0.51 95 1011.7
20220525065548 16 0 0.0 0.0 0.28 2.44 0.46 96 1012.0
20220525065049 16 0 0.0 3.2 0.23 2.39 0.41 95 1012.5
20220525064609 16 0 0.0 3.2 0.23 2.36 0.38 95 1013.0
20220525064044 16 53 0.0 1.6 0.18 2.31 0.33 95 1013.0
20220525063545 16 0 0.0 1.6 0.18 2.29 0.30 95 1013.1
20220525063053 16 0 0.0 3.2 0.18 2.29 0.30 95 1013.0
20220525062549 16 0 0.0 3.2 0.18 2.26 0.28 95 1013.0
20220525062049 16 0 0.0 0.0 0.15 2.24 0.25 95 1012.8
20220525061557 16 0 0.0 3.2 0.15 2.24 0.25 95 1012.2
20220525061051 16 0 0.0 3.2 0.18 2.24 0.25 95 1011.5
20220525060547 16 0 0.0 1.6 0.18 2.21 0.23 95 1011.4
20220525060053 16 0 0.0 3.2 0.18 2.18 0.20 95 1011.2
20220525055547 16 0 0.0 3.2 0.18 2.16 0.18 94 1011.2
20220525055049 16 6 0.0 4.8 0.20 2.16 0.18 94 1010.6
20220525054608 16 0 0.0 4.8 0.23 2.13 0.15 94 1010.3
20220525054050 16 7 0.0 4.8 0.36 2.13 0.15 94 1010.6
20220525053544 16 0 0.0 6.4 0.53 2.11 0.13 94 1011.0
20220525053058 16 0 0.0 6.4 0.69 2.11 0.13 94 1010.9
20220525052544 16 0 1.6 8.0 0.99 2.08 0.10 94 1010.8
20220525052053 16 324 1.6 11.3 1.63 2.08 0.10 94 1010.6
20220525051601 16 0 3.2 11.3 2.01 2.08 0.10 93 1010.2
20220525051048 16 305 3.2 24.1 2.06 2.06 0.08 93 1010.1
20220525050544 16 0 4.8 24.1 2.03 2.03 0.05 93 1009.9
20220525050105 16 92 4.8 22.5 2.01 2.01 0.03 92 1009.4
20220525045545 16 301 3.2 22.5 1.98 1.98 1.98 92 1009.7
20220525045045 16 307 4.8 22.5 1.93 1.93 1.93 92 1009.6
20220525044554 16 330 1.6 11.3 1.91 1.91 1.91 91 1009.9
20220525044045 16 320 1.6 14.5 1.78 1.78 1.78 90 1009.3
20220525043545 16 282 3.2 14.5 1.55 1.55 1.55 90 1009.4
20220525043056 17 50 3.2 32.2 1.40 1.40 1.40 88 1010.1
20220525042544 17 324 8.0 32.2 1.04 1.04 1.04 85 1010.1
20220525042044 18 297 4.8 33.8 0.43 0.43 0.43 81 1010.3
20220525041552 21 0 12.9 33.8 0.05 0.05 0.05 74 1010.9
20220525041044 23 257 3.2 11.3 0.00 0.00 0.00 64 1009.4
20220525040544 24 0 0.0 3.2 0.00 0.00 0.00 62 1007.0
20220525040103 25 16 0.0 8.0 0.00 0.00 0.00 61 1006.6
20220525035544 25 16 1.6 9.7 0.00 0.00 0.00 59 1006.9
20220525035045 26 328 1.6 9.7 0.00 0.00 0.00 61 1007.1
20220525034602 26 119 0.0 3.2 0.00 0.00 0.00 66 1006.8
20220525034045 26 0 0.0 3.2 0.00 0.00 0.00 65 1006.4
20220525033545 26 0 0.0 1.6 0.00 0.00 0.00 65 1006.3
20220525033106 26 0 0.0 1.6 0.00 0.00 0.00 65 1006.5
20220525032545 26 0 0.0 3.2 0.00 0.00 0.00 65 1006.3
20220525032045 26 0 0.0 3.2 0.00 0.00 0.00 65 1006.3
20220525031606 26 0 0.0 3.2 0.00 0.00 0.00 64 1005.8
20220525031046 26 0 0.0 3.2 0.00 0.00 0.00 64 1005.9
20220525030549 26 0 0.0 6.4 0.00 0.00 0.00 64 1005.8
20220525030053 27 0 0.0 6.4 0.00 0.00 0.00 63 1005.7
20220525025544 27 0 0.0 6.4 0.00 0.00 0.00 63 1005.3
20220525025045 27 114 1.6 6.4 0.00 0.00 0.00 63 1005.3
20220525024554 27 107 1.6 6.4 0.00 0.00 0.00 63 1005.1
20220525024045 27 0 0.0 9.7 0.00 0.00 0.00 63 1005.1
20220525023545 27 111 0.0 9.7 0.00 0.00 0.00 63 1005.3
20220525023105 27 120 1.6 8.0 0.00 0.00 0.00 62 1005.3
20220525022545 27 0 1.6 4.8 0.00 0.00 0.00 62 1005.3
20220525022045 27 103 0.0 4.8 0.00 0.00 0.00 62 1005.3
20220525021605 27 0 0.0 9.7 0.00 0.00 0.00 62 1005.0
20220525021045 27 0 1.6 11.3 0.00 0.00 0.00 61 1004.8
20220525020546 27 0 1.6 11.3 0.00 0.00 0.00 61 1004.8
20220525020111 27 109 1.6 11.3 0.00 0.00 0.00 61 1005.0
20220525015549 27 124 3.2 12.9 0.00 0.00 0.00 60 1005.0
20220525015044 27 98 3.2 12.9 0.00 0.00 0.00 60 1004.9
20220525014612 27 99 1.6 9.7 0.00 0.00 0.00 60 1005.1
20220525014045 27 105 0.0 9.7 0.00 0.00 0.00 60 1005.1
20220525013548 27 105 1.6 9.7 0.00 0.00 0.00 60 1005.1
20220525013104 27 105 3.2 9.7 0.00 0.00 0.00 60 1005.2
20220525012544 27 118 3.2 9.7 0.00 0.00 0.00 59 1005.1
20220525012049 27 104 0.0 11.3 0.00 0.00 0.00 59 1004.9
20220525011600 27 135 1.6 11.3 0.00 0.00 0.00 59 1004.9
20220525011046 27 125 3.2 12.9 0.00 0.00 0.00 58 1004.8
20220525010546 27 114 1.6 12.9 0.00 0.00 0.00 58 1004.7
20220525010107 27 115 3.2 14.5 0.00 0.00 0.00 58 1004.5
20220525005546 27 118 4.8 14.5 0.00 0.00 0.00 58 1004.5
20220525005045 27 93 1.6 16.1 0.00 0.00 0.00 58 1004.6
20220525004558 27 122 4.8 16.1 0.00 0.00 0.00 58 1004.5
20220525004044 27 130 4.8 16.1 0.00 0.00 0.00 58 1004.4
20220525003546 27 143 6.4 16.1 0.00 0.00 0.00 57 1004.2
20220525003102 27 122 4.8 12.9 0.00 0.00 0.00 57 1004.0
20220525002544 28 116 3.2 12.9 0.00 0.00 0.00 57 1004.0
20220525002045 28 107 3.2 14.5 0.00 0.00 0.00 57 1004.0
20220525001610 28 121 3.2 14.5 0.00 0.00 0.00 56 1003.8
20220525001045 28 151 1.6 14.5 0.00 0.00 0.00 56 1003.6
20220525000545 28 131 3.2 14.5 0.00 0.00 0.00 57 1003.7
20220525000109 28 118 4.8 14.5 0.00 0.00 0.00 57 1003.6
20220524235544 28 133 3.2 14.5 0.00 0.00 0.00 56 1003.7
20220524235045 28 117 4.8 14.5 0.00 0.00 0.00 56 1003.6
20220524234603 28 170 3.2 14.5 0.00 0.00 0.00 57 1003.9
20220524234045 28 137 6.4 14.5 0.00 0.00 0.00 57 1003.9
20220524233547 28 127 3.2 12.9 0.00 0.00 0.00 57 1004.0
20220524233057 28 107 4.8 14.5 0.00 0.00 0.00 57 1004.0
20220524232551 28 127 4.8 14.5 0.00 0.00 0.00 58 1004.0
20220524232049 28 147 4.8 14.5 0.00 0.00 0.00 58 1004.0
20220524231558 28 125 3.2 16.1 0.00 0.00 0.00 59 1004.0
20220524231054 28 99 3.2 16.1 0.00 0.00 0.00 59 1004.1
20220524230546 28 126 4.8 12.9 0.00 0.00 0.00 58 1004.0
20220524230100 28 127 4.8 14.5 0.00 0.00 0.00 58 1004.0
20220524225544 28 130 3.2 14.5 0.00 0.00 0.00 59 1004.1
20220524225044 28 116 3.2 14.5 0.00 0.00 0.00 60 1004.1
20220524224612 28 143 3.2 16.1 0.00 0.00 0.00 60 1004.2
20220524224048 28 137 6.4 16.1 0.00 0.00 0.00 58 1004.3
20220524223545 28 141 1.6 12.9 0.00 0.00 0.00 58 1004.4
20220524223107 28 101 3.2 14.5 0.00 0.00 0.00 58 1004.6
20220524222544 28 139 4.8 14.5 0.00 0.00 0.00 58 1004.7
20220524222043 28 126 3.2 16.1 0.00 0.00 0.00 58 1004.9
20220524221556 28 143 3.2 16.1 0.00 0.00 0.00 58 1005.2
20220524221046 28 118 3.2 14.5 0.00 0.00 0.00 58 1005.2
20220524220545 28 112 4.8 12.9 0.00 0.00 0.00 58 1005.2
20220524220114 28 143 3.2 12.9 0.00 0.00 0.00 57 1005.2
20220524215545 28 121 3.2 12.9 0.00 0.00 0.00 57 1005.3
20220524215045 27 113 3.2 17.7 0.00 0.00 0.00 59 1005.6
20220524214613 27 175 3.2 17.7 0.00 0.00 0.00 58 1005.6
20220524214225 28 132 4.8 14.5 0.00 0.00 0.00 58 1005.6
20220524212047 28 136 1.6 17.7 0.00 0.00 0.00 57 1005.9
20220524211625 28 147 4.8 17.7 0.00 0.00 0.00 56 1006.0
20220524211044 28 122 3.2 16.1 0.00 0.00 0.00 57 1006.0
20220524210546 28 127 4.8 14.5 0.00 0.00 0.00 57 1006.1
20220524210100 28 153 1.6 17.7 0.00 0.00 0.00 58 1006.1
20220524205544 28 0 4.8 17.7 0.00 0.00 0.00 58 1006.1
20220524205045 28 123 3.2 14.5 0.00 0.00 0.00 57 1006.2
20220524204600 28 105 4.8 19.3 0.00 0.00 0.00 57 1006.3
20220524204045 28 126 4.8 19.3 0.00 0.00 0.00 57 1006.4
20220524203545 28 112 4.8 16.1 0.00 0.00 0.00 58 1006.6
20220524203118 27 112 4.8 16.1 0.00 0.00 0.00 58 1006.5
20220524202045 27 129 4.8 19.3 0.00 0.00 0.00 59 1006.6
20220524201605 27 128 4.8 19.3 0.00 0.00 0.00 58 1006.6
20220524201044 27 118 4.8 14.5 0.00 0.00 0.00 57 1006.6
20220524200546 27 125 3.2 17.7 0.00 0.00 0.00 58 1006.7
20220524200054 27 117 4.8 17.7 0.00 0.00 0.00 56 1006.7
20220524195549 28 133 3.2 17.7 0.00 0.00 0.00 57 1006.7
20220524195045 28 172 3.2 16.1 0.00 0.00 0.00 56 1006.7
20220524194605 28 115 8.0 24.1 0.00 0.00 0.00 55 1006.9
20220524194045 28 89 6.4 24.1 0.00 0.00 0.00 54 1007.0
20220524193545 28 112 6.4 20.9 0.00 0.00 0.00 54 1006.9
20220524193055 28 112 6.4 22.5 0.00 0.00 0.00 54 1006.9
20220524192544 28 95 8.0 22.5 0.00 0.00 0.00 55 1006.9
20220524192044 28 143 3.2 14.5 0.00 0.00 0.00 58 1007.0
20220524191555 28 132 4.8 19.3 0.00 0.00 0.00 58 1007.0
20220524191044 28 128 4.8 19.3 0.00 0.00 0.00 59 1007.0
20220524190545 27 102 4.8 19.3 0.00 0.00 0.00 61 1007.1
20220524190054 27 97 4.8 16.1 0.00 0.00 0.00 61 1007.0
20220524185544 27 132 6.4 16.1 0.00 0.00 0.00 61 1007.1
20220524185045 27 100 4.8 14.5 0.00 0.00 0.00 61 1007.1
20220524184553 27 183 3.2 14.5 0.00 0.00 0.00 61 1007.2
20220524184044 27 105 3.2 16.1 0.00 0.00 0.00 62 1007.3
20220524183545 28 113 4.8 16.1 0.00 0.00 0.00 60 1007.3
20220524183105 28 130 4.8 16.1 0.00 0.00 0.00 60 1007.2
20220524182546 28 97 3.2 14.5 0.00 0.00 0.00 62 1007.3
20220524182046 27 0 3.2 16.1 0.00 0.00 0.00 62 1007.3
20220524181607 27 160 4.8 16.1 0.00 0.00 0.00 61 1007.3
20220524181045 27 101 4.8 12.9 0.00 0.00 0.00 62 1007.3
20220524180545 27 126 3.2 11.3 0.00 0.00 0.00 63 1007.3
20220524180105 27 107 1.6 14.5 0.00 0.00 0.00 64 1007.3
20220524175549 27 120 4.8 14.5 0.00 0.00 0.00 64 1007.3
20220524175045 27 119 4.8 14.5 0.00 0.00 0.00 63 1007.3
20220524174606 27 135 4.8 14.5 0.00 0.00 0.00 63 1007.3
20220524174048 27 105 6.4 14.5 0.00 0.00 0.00 62 1007.3
20220524173546 27 134 4.8 14.5 0.00 0.00 0.00 64 1007.3
20220524173109 27 116 3.2 12.9 0.00 0.00 0.00 66 1007.3
20220524172545 27 114 3.2 14.5 0.00 0.00 0.00 65 1007.4
20220524172050 27 125 4.8 14.5 0.00 0.00 0.00 66 1007.5
20220524171600 27 118 3.2 12.9 0.00 0.00 0.00 66 1007.5
20220524171045 27 105 3.2 12.9 0.00 0.00 0.00 66 1007.6
20220524170544 27 76 1.6 12.9 0.00 0.00 0.00 68 1007.6
20220524170100 26 137 3.2 12.9 0.00 0.00 0.00 67 1007.7
20220524165549 26 128 4.8 14.5 0.00 0.00 0.00 66 1007.9
20220524165047 26 124 3.2 14.5 0.00 0.00 0.00 67 1007.9
20220524164556 26 151 4.8 14.5 0.00 0.00 0.00 66 1008.0
20220524164044 26 125 3.2 14.5 0.00 0.00 0.00 69 1008.0
20220524163545 26 127 4.8 12.9 0.00 0.00 0.00 69 1008.1
20220524163101 26 117 3.2 12.9 0.00 0.00 0.00 70 1008.3
20220524162545 26 135 1.6 12.9 0.00 0.00 0.00 72 1008.4
20220524162046 26 103 3.2 14.5 0.00 0.00 0.00 72 1008.4
20220524161600 26 153 1.6 14.5 0.00 0.00 0.00 72 1008.5
20220524161047 26 126 1.6 9.7 0.00 0.00 0.00 72 1008.6
20220524160546 26 115 3.2 9.7 0.00 0.00 0.00 72 1008.6
20220524160100 26 120 3.2 11.3 0.00 0.00 0.00 72 1008.6
20220524155546 25 95 3.2 14.5 0.00 0.00 0.00 73 1008.6
20220524155051 25 103 4.8 14.5 0.00 0.00 0.00 71 1008.6
20220524154603 25 112 3.2 14.5 0.00 0.00 0.00 72 1008.7
20220524154048 25 118 3.2 11.3 0.00 0.00 0.00 76 1008.7
20220524153549 25 93 3.2 16.1 0.00 0.00 0.00 76 1008.7
20220524153049 25 117 6.4 16.1 0.00 0.00 0.00 76 1008.8
20220524152545 25 138 4.8 19.3 0.00 0.00 0.00 79 1008.8
20220524152046 25 99 4.8 19.3 0.00 0.00 0.00 80 1008.8
20220524151558 24 0 1.6 8.0 0.00 0.00 0.00 82 1008.9
20220524151047 24 138 1.6 6.4 0.00 0.00 0.00 83 1008.9
20220524150545 24 103 0.0 11.3 0.00 0.00 0.00 84 1008.9
20220524150103 24 101 1.6 11.3 0.00 0.00 0.00 84 1009.0
20220524145544 24 93 1.6 4.8 0.00 0.00 0.00 84 1009.0
20220524145051 23 0 0.0 6.4 0.00 0.00 0.00 86 1009.1
20220524144601 23 93 0.0 6.4 0.00 0.00 0.00 86 1009.1
20220524144050 23 0 0.0 6.4 0.00 0.00 0.00 86 1009.2
20220524143546 23 91 1.6 9.7 0.00 0.00 0.00 86 1009.2
20220524143113 23 108 3.2 9.7 0.00 0.00 0.00 86 1009.2